Time,TemperatureF,DewpointF,PressureIn,WindDirection,WindDirectionDegrees,WindSpeedMPH,WindSpeedGustMPH,Humidity,HourlyPrecipIn,Conditions,Clouds,dailyrainin,SoftwareType,DateUTC
2013-02-24 00:00:00,47.8,28.6,29.03,ENE,72,4.9,5.8,47,0.00,,,0.00,LWC V2.10 B1813,2013-02-24 06:00:00,
2013-02-24 00:05:00,47.8,28.6,29.03,NE,56,4.5,4.9,47,0.00,,,0.00,LWC V2.10 B1813,2013-02-24 06:05:00,
2013-02-24 00:10:00,47.8,28.6,29.03,ENE,58,3.1,4.9,47,0.00,,,0.00,LWC V2.10 B1813,2013-02-24 06:10:00,
2013-02-24 00:14:00,47.8,28.6,29.03,East,79,2.7,5.4,47,0.00,,,0.00,LWC V2.10 B1813,2013-02-24 06:14:00,
2013-02-24 00:19:00,47.8,29.1,29.03,ENE,76,2.2,5.4,48,0.00,,,0.00,LWC V2.10 B1813,2013-02-24 06:19:00,
2013-02-24 00:24:00,47.8,29.1,29.03,ENE,71,2.7,5.4,48,0.00,,,0.00,LWC V2.10 B1813,2013-02-24 06:24:00,
2013-02-24 00:29:00,47.8,29.1,29.03,ENE,68,3.1,4.0,48,0.00,,,0.00,LWC V2.10 B1813,2013-02-24 06:29:00,
2013-02-24 00:34:00,47.8,29.1,29.03,ENE,62,6.7,6.7,48,0.00,,,0.00,LWC V2.10 B1813,2013-02-24 06:34:00,
2013-02-24 00:39:00,47.8,29.1,29.03,ENE,74,2.2,2.7,48,0.00,,,0.00,LWC V2.10 B1813,2013-02-24 06:39:00,
2013-02-24 00:44:00,47.7,28.9,29.03,East,88,3.6,4.0,48,0.00,,,0.00,LWC V2.10 B1813,2013-02-24 06:44:00,
2013-02-24 00:49:00,47.7,28.9,29.03,ENE,75,3.6,4.9,48,0.00,,,0.00,LWC V2.10 B1813,2013-02-24 06:49:00,
2013-02-24 00:54:00,47.7,29.4,29.03,East,94,4.0,4.9,49,0.00,,,0.00,LWC V2.10 B1813,2013-02-24 06:54:00,
2013-02-24 00:59:00,47.8,29.6,29.03,ESE,111,5.4,6.7,49,0.00,,,0.00,LWC V2.10 B1813,2013-02-24 06:59:00,
2013-02-24 01:04:00,48.0,29.8,29.03,ESE,104,5.4,5.8,49,0.00,,,0.00,LWC V2.10 B1813,2013-02-24 07:04:00,
2013-02-24 01:09:00,48.2,29.9,29.03,ENE,76,3.1,5.4,49,0.00,,,0.00,LWC V2.10 B1813,2013-02-24 07:09:00,
2013-02-24 01:14:00,48.0,30.3,29.03,ESE,102,2.7,4.0,50,0.00,,,0.00,LWC V2.10 B1813,2013-02-24 07:14:00,
2013-02-24 01:19:00,47.8,30.1,29.03,NE,53,3.1,4.0,50,0.00,,,0.00,LWC V2.10 B1813,2013-02-24 07:19:00,
2013-02-24 01:24:00,47.7,29.9,29.03,East,81,2.7,4.9,50,0.00,,,0.00,LWC V2.10 B1813,2013-02-24 07:24:00,
2013-02-24 01:29:00,47.3,29.6,29.03,East,81,0.0,0.0,50,0.00,,,0.00,LWC V2.10 B1813,2013-02-24 07:29:00,
2013-02-24 01:34:00,47.1,29.4,29.03,NE,55,3.6,3.6,50,0.00,,,0.00,LWC V2.10 B1813,2013-02-24 07:34:00,
2013-02-24 01:39:00,47.1,29.4,29.03,ENE,62,3.6,5.8,50,0.00,,,0.00,LWC V2.10 B1813,2013-02-24 07:39:00,
2013-02-24 01:44:00,47.1,29.4,29.03,ENE,69,2.7,6.7,50,0.00,,,0.00,LWC V2.10 B1813,2013-02-24 07:44:00,
2013-02-24 01:49:00,47.5,29.8,29.03,ENE,65,3.1,7.6,50,0.00,,,0.00,LWC V2.10 B1813,2013-02-24 07:49:00,
2013-02-24 01:54:00,47.5,29.8,29.03,ENE,74,3.6,6.3,50,0.00,,,0.00,LWC V2.10 B1813,2013-02-24 07:54:00,
2013-02-24 01:59:00,47.5,29.8,29.03,ENE,69,5.8,6.3,50,0.00,,,0.00,LWC V2.10 B1813,2013-02-24 07:59:00,
2013-02-24 02:04:00,47.3,29.6,29.03,ENE,73,4.0,7.6,50,0.00,,,0.00,LWC V2.10 B1813,2013-02-24 08:04:00,
2013-02-24 02:09:00,47.3,29.6,29.03,East,84,5.8,7.2,50,0.00,,,0.00,LWC V2.10 B1813,2013-02-24 08:09:00,
2013-02-24 02:14:00,47.3,29.6,29.03,East,90,3.6,7.6,50,0.00,,,0.00,LWC V2.10 B1813,2013-02-24 08:14:00,
2013-02-24 02:19:00,47.3,29.6,29.03,ENE,66,3.1,6.3,50,0.00,,,0.00,LWC V2.10 B1813,2013-02-24 08:19:00,
2013-02-24 02:24:00,47.1,29.4,29.03,ENE,64,3.1,3.6,50,0.00,,,0.00,LWC V2.10 B1813,2013-02-24 08:24:00,
2013-02-24 02:29:00,46.9,29.3,29.03,ENE,73,4.0,4.0,50,0.00,,,0.00,LWC V2.10 B1813,2013-02-24 08:29:00,
2013-02-24 02:34:00,46.8,29.1,29.03,ENE,75,0.0,3.1,50,0.00,,,0.00,LWC V2.10 B1813,2013-02-24 08:34:00,
2013-02-24 02:39:00,46.6,29.4,29.03,East,84,0.0,3.1,51,0.00,,,0.00,LWC V2.10 B1813,2013-02-24 08:39:00,
2013-02-24 02:44:00,46.4,29.3,29.00,SE,126,3.1,3.1,51,0.00,,,0.00,LWC V2.10 B1813,2013-02-24 08:44:00,
2013-02-24 02:46:00,46.4,29.3,29.00,SE,126,0.0,3.1,51,0.00,,,0.00,LWC V2.10 B1813,2013-02-24 08:46:00,
2013-02-24 02:51:00,46.2,29.6,29.00,East,84,2.7,4.0,52,0.00,,,0.00,LWC V2.10 B1813,2013-02-24 08:51:00,
2013-02-24 02:56:00,46.2,29.6,29.00,East,87,3.1,3.1,52,0.00,,,0.00,LWC V2.10 B1813,2013-02-24 08:56:00,
2013-02-24 03:01:00,46.0,29.4,29.00,East,88,0.0,3.1,52,0.00,,,0.00,LWC V2.10 B1813,2013-02-24 09:01:00,
2013-02-24 03:06:00,46.2,30.0,29.00,East,83,0.0,3.1,53,0.00,,,0.00,LWC V2.10 B1813,2013-02-24 09:06:00,
2013-02-24 03:11:00,46.0,29.9,29.00,East,89,0.0,3.6,53,0.00,,,0.00,LWC V2.10 B1813,2013-02-24 09:11:00,
2013-02-24 03:16:00,46.0,29.9,29.00,East,93,2.2,2.7,53,0.00,,,0.00,LWC V2.10 B1813,2013-02-24 09:16:00,
2013-02-24 03:21:00,45.7,29.5,29.00,ENE,77,4.0,4.0,53,0.00,,,0.00,LWC V2.10 B1813,2013-02-24 09:21:00,
2013-02-24 03:26:00,45.9,30.2,29.00,East,96,2.2,2.2,54,0.00,,,0.00,LWC V2.10 B1813,2013-02-24 09:26:00,
2013-02-24 03:31:00,45.9,30.2,29.00,ESE,104,2.7,2.7,54,0.00,,,0.00,LWC V2.10 B1813,2013-02-24 09:31:00,
2013-02-24 03:36:00,45.7,30.0,29.00,East,83,2.2,3.6,54,0.00,,,0.00,LWC V2.10 B1813,2013-02-24 09:36:00,
2013-02-24 03:41:00,45.3,29.7,29.00,East,89,2.7,2.7,54,0.00,,,0.00,LWC V2.10 B1813,2013-02-24 09:41:00,
2013-02-24 03:46:00,45.1,29.5,29.00,East,80,0.0,0.0,54,0.00,,,0.00,LWC V2.10 B1813,2013-02-24 09:46:00,
2013-02-24 03:51:00,44.6,29.4,29.00,East,80,0.0,0.0,55,0.00,,,0.00,LWC V2.10 B1813,2013-02-24 09:51:00,
2013-02-24 03:56:00,44.1,28.9,29.00,East,86,0.0,0.0,55,0.00,,,0.00,LWC V2.10 B1813,2013-02-24 09:56:00,
2013-02-24 04:01:00,44.1,29.4,29.00,East,93,3.1,4.0,56,0.00,,,0.00,LWC V2.10 B1813,2013-02-24 10:01:00,
2013-02-24 04:06:00,44.6,29.9,29.00,ESE,123,3.1,4.0,56,0.00,,,0.00,LWC V2.10 B1813,2013-02-24 10:06:00,
2013-02-24 04:11:00,44.6,29.9,29.00,ESE,113,2.7,3.1,56,0.00,,,0.00,LWC V2.10 B1813,2013-02-24 10:11:00,
2013-02-24 04:16:00,44.2,30.0,29.00,SE,124,3.1,4.0,57,0.00,,,0.00,LWC V2.10 B1813,2013-02-24 10:16:00,
2013-02-24 04:21:00,44.4,30.2,29.00,SE,140,2.7,4.0,57,0.00,,,0.00,LWC V2.10 B1813,2013-02-24 10:21:00,
2013-02-24 04:26:00,44.6,30.3,29.00,ESE,103,4.0,4.9,57,0.00,,,0.00,LWC V2.10 B1813,2013-02-24 10:26:00,
2013-02-24 04:31:00,44.8,30.5,29.00,ESE,118,3.1,4.0,57,0.00,,,0.00,LWC V2.10 B1813,2013-02-24 10:31:00,
2013-02-24 04:36:00,45.0,30.7,29.00,ESE,120,4.0,4.0,57,0.00,,,0.00,LWC V2.10 B1813,2013-02-24 10:36:00,
2013-02-24 04:41:00,45.1,30.8,29.00,ESE,102,2.7,4.0,57,0.00,,,0.00,LWC V2.10 B1813,2013-02-24 10:41:00,
2013-02-24 04:46:00,45.3,31.0,29.00,ESE,108,2.7,3.1,57,0.00,,,0.00,LWC V2.10 B1813,2013-02-24 10:46:00,
2013-02-24 04:51:00,45.3,31.0,29.00,ENE,74,2.7,4.0,57,0.00,,,0.00,LWC V2.10 B1813,2013-02-24 10:51:00,
2013-02-24 04:56:00,45.3,31.0,29.00,East,87,3.6,3.6,57,0.00,,,0.00,LWC V2.10 B1813,2013-02-24 10:56:00,
2013-02-24 05:01:00,45.1,30.8,29.00,East,86,2.2,2.2,57,0.00,,,0.00,LWC V2.10 B1813,2013-02-24 11:01:00,
2013-02-24 05:06:00,45.1,30.8,29.00,ESE,104,0.0,3.6,57,0.00,,,0.00,LWC V2.10 B1813,2013-02-24 11:06:00,
2013-02-24 05:11:00,45.1,30.8,29.00,ESE,108,0.0,3.1,57,0.00,,,0.00,LWC V2.10 B1813,2013-02-24 11:11:00,
2013-02-24 05:16:00,44.8,30.5,29.00,East,90,2.7,2.7,57,0.00,,,0.00,LWC V2.10 B1813,2013-02-24 11:16:00,
2013-02-24 05:21:00,44.2,30.0,29.00,East,81,2.7,4.0,57,0.00,,,0.00,LWC V2.10 B1813,2013-02-24 11:21:00,
2013-02-24 05:26:00,44.2,30.4,29.00,ESE,119,5.4,5.4,58,0.00,,,0.00,LWC V2.10 B1813,2013-02-24 11:26:00,
2013-02-24 05:31:00,44.4,31.0,29.00,ENE,78,3.1,4.9,59,0.00,,,0.00,LWC V2.10 B1813,2013-02-24 11:31:00,
2013-02-24 05:36:00,44.4,31.0,29.00,ESE,111,3.6,6.3,59,0.00,,,0.00,LWC V2.10 B1813,2013-02-24 11:36:00,
2013-02-24 05:41:00,44.6,31.2,29.00,East,89,2.7,4.9,59,0.00,,,0.00,LWC V2.10 B1813,2013-02-24 11:41:00,
2013-02-24 05:45:00,44.8,31.3,29.00,ESE,105,2.7,3.6,59,0.00,,,0.00,LWC V2.10 B1813,2013-02-24 11:45:00,
2013-02-24 05:50:00,44.8,31.3,29.00,ENE,73,4.0,4.0,59,0.00,,,0.00,LWC V2.10 B1813,2013-02-24 11:50:00,
2013-02-24 05:55:00,44.8,31.3,29.00,ENE,63,2.2,3.6,59,0.00,,,0.00,LWC V2.10 B1813,2013-02-24 11:55:00,
2013-02-24 06:00:00,44.2,30.8,29.00,ENE,77,0.0,3.1,59,0.00,,,0.00,LWC V2.10 B1813,2013-02-24 12:00:00,
2013-02-24 06:05:00,44.1,30.7,29.00,East,98,0.0,2.2,59,0.00,,,0.00,LWC V2.10 B1813,2013-02-24 12:05:00,
2013-02-24 06:10:00,43.5,30.2,29.00,ESE,112,0.0,3.6,59,0.00,,,0.00,LWC V2.10 B1813,2013-02-24 12:10:00,
2013-02-24 06:15:00,43.5,30.6,29.00,East,99,2.7,5.8,60,0.00,,,0.00,LWC V2.10 B1813,2013-02-24 12:15:00,
2013-02-24 06:20:00,43.9,30.9,29.00,ESE,115,2.2,4.9,60,0.00,,,0.00,LWC V2.10 B1813,2013-02-24 12:20:00,
2013-02-24 06:25:00,44.2,31.7,29.00,SE,142,0.0,2.7,61,0.00,,,0.00,LWC V2.10 B1813,2013-02-24 12:25:00,
2013-02-24 06:30:00,43.7,31.1,29.00,SE,143,0.0,0.0,61,0.00,,,0.00,LWC V2.10 B1813,2013-02-24 12:30:00,
2013-02-24 06:35:00,43.7,31.1,29.00,SE,143,0.0,0.0,61,0.00,,,0.00,LWC V2.10 B1813,2013-02-24 12:35:00,
2013-02-24 06:40:00,43.7,31.1,29.00,SE,135,0.0,0.0,61,0.00,,,0.00,LWC V2.10 B1813,2013-02-24 12:40:00,
2013-02-24 06:45:00,43.5,31.4,29.00,SE,135,0.0,0.0,62,0.00,,,0.00,LWC V2.10 B1813,2013-02-24 12:45:00,
2013-02-24 06:50:00,43.2,31.0,29.00,SE,135,0.0,0.0,62,0.00,,,0.00,LWC V2.10 B1813,2013-02-24 12:50:00,
2013-02-24 06:55:00,42.8,30.7,29.00,ESE,105,0.0,0.0,62,0.00,,,0.00,LWC V2.10 B1813,2013-02-24 12:55:00,
2013-02-24 07:00:00,43.0,31.3,29.00,ESE,105,0.0,0.0,63,0.00,,,0.00,LWC V2.10 B1813,2013-02-24 13:00:00,
2013-02-24 07:05:00,43.0,31.3,29.00,East,97,0.0,0.0,63,0.00,,,0.00,LWC V2.10 B1813,2013-02-24 13:05:00,
2013-02-24 07:10:00,43.3,31.6,29.00,ENE,61,2.2,3.1,63,0.00,,,0.00,LWC V2.10 B1813,2013-02-24 13:10:00,
2013-02-24 07:15:00,43.3,32.0,29.00,ENE,69,2.7,2.7,64,0.00,,,0.00,LWC V2.10 B1813,2013-02-24 13:15:00,
2013-02-24 07:20:00,43.3,32.0,29.00,NE,52,2.7,3.1,64,0.00,,,0.00,LWC V2.10 B1813,2013-02-24 13:20:00,
2013-02-24 07:25:00,43.3,32.0,29.00,ENE,62,2.7,3.6,64,0.00,,,0.00,LWC V2.10 B1813,2013-02-24 13:25:00,
2013-02-24 07:30:00,43.3,32.0,29.00,ENE,77,3.1,3.1,64,0.00,,,0.00,LWC V2.10 B1813,2013-02-24 13:30:00,
2013-02-24 07:35:00,43.7,32.3,29.00,ENE,75,3.1,3.6,64,0.00,,,0.00,LWC V2.10 B1813,2013-02-24 13:35:00,
2013-02-24 07:40:00,44.1,32.7,29.00,ENE,77,2.7,4.0,64,0.00,,,0.00,LWC V2.10 B1813,2013-02-24 13:40:00,
2013-02-24 07:45:00,44.6,32.8,29.00,ENE,74,3.1,4.0,63,0.00,,,0.00,LWC V2.10 B1813,2013-02-24 13:45:00,
2013-02-24 07:50:00,45.1,33.3,29.00,NE,56,3.1,4.0,63,0.00,,,0.00,LWC V2.10 B1813,2013-02-24 13:50:00,
2013-02-24 07:55:00,45.9,34.0,29.00,ESE,111,4.0,4.0,63,0.00,,,0.00,LWC V2.10 B1813,2013-02-24 13:55:00,
2013-02-24 08:00:00,46.6,34.3,29.00,East,98,0.0,4.0,62,0.00,,,0.00,LWC V2.10 B1813,2013-02-24 14:00:00,
2013-02-24 08:05:00,47.3,34.9,29.00,SE,145,2.7,5.8,62,0.00,,,0.00,LWC V2.10 B1813,2013-02-24 14:05:00,
2013-02-24 08:10:00,47.7,34.9,29.00,SSE,153,2.7,5.8,61,0.00,,,0.00,LWC V2.10 B1813,2013-02-24 14:10:00,
2013-02-24 08:15:00,48.4,35.1,29.03,East,87,3.1,5.8,60,0.00,,,0.00,LWC V2.10 B1813,2013-02-24 14:15:00,
2013-02-24 08:20:00,48.7,35.5,29.03,ESE,108,2.7,7.2,60,0.00,,,0.00,LWC V2.10 B1813,2013-02-24 14:20:00,
2013-02-24 08:25:00,49.3,35.6,29.03,ESE,107,4.9,6.3,59,0.00,,,0.00,LWC V2.10 B1813,2013-02-24 14:25:00,
2013-02-24 08:30:00,49.8,36.1,29.03,East,97,2.7,5.4,59,0.00,,,0.00,LWC V2.10 B1813,2013-02-24 14:30:00,
2013-02-24 08:35:00,50.0,35.8,29.03,East,101,3.1,6.7,58,0.00,,,0.00,LWC V2.10 B1813,2013-02-24 14:35:00,
2013-02-24 08:40:00,50.2,36.0,29.03,East,88,7.6,10.1,58,0.00,,,0.00,LWC V2.10 B1813,2013-02-24 14:40:00,
2013-02-24 08:45:00,50.4,36.1,29.03,ESE,113,5.4,6.3,58,0.00,,,0.00,LWC V2.10 B1813,2013-02-24 14:45:00,
2013-02-24 08:50:00,50.7,36.5,29.03,East,96,8.3,8.3,58,0.00,,,0.00,LWC V2.10 B1813,2013-02-24 14:50:00,
2013-02-24 08:55:00,51.4,36.7,29.03,NE,54,5.4,5.8,57,0.00,,,0.00,LWC V2.10 B1813,2013-02-24 14:55:00,
2013-02-24 09:00:00,51.8,37.1,29.00,East,98,5.4,8.1,57,0.00,,,0.00,LWC V2.10 B1813,2013-02-24 15:00:00,
2013-02-24 09:05:00,52.0,37.2,29.00,East,86,8.1,11.0,57,0.00,,,0.00,LWC V2.10 B1813,2013-02-24 15:05:00,
2013-02-24 09:10:00,52.7,37.9,29.00,SE,136,8.7,8.7,57,0.00,,,0.00,LWC V2.10 B1813,2013-02-24 15:10:00,
2013-02-24 09:15:00,52.7,37.9,29.00,SSE,156,10.5,10.5,57,0.00,,,0.00,LWC V2.10 B1813,2013-02-24 15:15:00,
2013-02-24 09:20:00,53.2,38.4,29.00,SSE,154,7.6,12.3,57,0.00,,,0.00,LWC V2.10 B1813,2013-02-24 15:20:00,
2013-02-24 09:25:00,53.8,38.9,29.00,SSE,165,7.6,8.3,57,0.00,,,0.00,LWC V2.10 B1813,2013-02-24 15:25:00,
2013-02-24 09:30:00,54.3,39.4,29.00,South,184,8.7,8.7,57,0.00,,,0.00,LWC V2.10 B1813,2013-02-24 15:30:00,
2013-02-24 09:35:00,55.0,40.1,29.00,ESE,105,8.1,11.9,57,0.00,,,0.00,LWC V2.10 B1813,2013-02-24 15:35:00,
2013-02-24 09:40:00,55.9,40.5,29.00,SSE,150,8.7,11.9,56,0.00,,,0.00,LWC V2.10 B1813,2013-02-24 15:40:00,
2013-02-24 09:45:00,56.3,40.3,29.00,East,82,10.1,12.3,55,0.00,,,0.00,LWC V2.10 B1813,2013-02-24 15:45:00,
2013-02-24 09:50:00,57.0,40.5,29.00,ESE,112,6.3,11.0,54,0.00,,,0.00,LWC V2.10 B1813,2013-02-24 15:50:00,
2013-02-24 09:55:00,57.9,41.4,29.00,ESE,114,7.6,7.6,54,0.00,,,0.00,LWC V2.10 B1813,2013-02-24 15:55:00,
2013-02-24 10:00:00,58.5,41.4,29.00,ESE,111,3.6,5.8,53,0.00,,,0.00,LWC V2.10 B1813,2013-02-24 16:00:00,
2013-02-24 10:05:00,59.0,41.4,29.00,SE,126,5.4,11.0,52,0.00,,,0.00,LWC V2.10 B1813,2013-02-24 16:05:00,
2013-02-24 10:10:00,60.3,42.6,29.00,SSE,157,6.3,8.1,52,0.00,,,0.00,LWC V2.10 B1813,2013-02-24 16:10:00,
2013-02-24 10:15:00,59.7,41.6,29.00,ESE,110,8.1,11.0,51,0.00,,,0.00,LWC V2.10 B1813,2013-02-24 16:15:00,
2013-02-24 10:20:00,60.4,42.2,29.00,SSE,150,11.0,11.0,51,0.00,,,0.00,LWC V2.10 B1813,2013-02-24 16:20:00,
2013-02-24 10:25:00,60.1,41.9,29.00,East,90,8.3,12.3,51,0.00,,,0.00,LWC V2.10 B1813,2013-02-24 16:25:00,
2013-02-24 10:30:00,60.4,42.2,29.00,SE,129,8.3,10.1,51,0.00,,,0.00,LWC V2.10 B1813,2013-02-24 16:30:00,
2013-02-24 10:35:00,60.8,42.0,29.00,ESE,103,13.2,13.2,50,0.00,,,0.00,LWC V2.10 B1813,2013-02-24 16:35:00,
2013-02-24 10:40:00,61.7,42.3,29.00,SSE,161,4.9,10.5,49,0.00,,,0.00,LWC V2.10 B1813,2013-02-24 16:40:00,
2013-02-24 10:45:00,62.2,42.8,29.00,SSW,195,4.9,8.1,49,0.00,,,0.00,LWC V2.10 B1813,2013-02-24 16:45:00,
2013-02-24 10:50:00,62.8,42.8,29.00,ENE,70,10.1,15.0,48,0.00,,,0.00,LWC V2.10 B1813,2013-02-24 16:50:00,
2013-02-24 10:55:00,62.8,42.2,29.00,East,92,10.1,12.3,47,0.00,,,0.00,LWC V2.10 B1813,2013-02-24 16:55:00,
2013-02-24 11:00:00,63.0,42.4,29.00,ESE,106,9.6,11.9,47,0.00,,,0.00,LWC V2.10 B1813,2013-02-24 17:00:00,
2013-02-24 11:05:00,63.0,42.4,29.00,ESE,121,8.3,15.0,47,0.00,,,0.00,LWC V2.10 B1813,2013-02-24 17:05:00,
2013-02-24 11:10:00,63.0,41.9,29.00,SSE,168,6.3,10.1,46,0.00,,,0.00,LWC V2.10 B1813,2013-02-24 17:10:00,
2013-02-24 11:15:00,63.9,43.2,28.97,ESE,110,10.5,10.5,47,0.00,,,0.00,LWC V2.10 B1813,2013-02-24 17:15:00,
2013-02-24 11:20:00,64.4,43.2,28.97,SE,140,7.2,11.0,46,0.00,,,0.00,LWC V2.10 B1813,2013-02-24 17:20:00,
2013-02-24 11:25:00,64.8,43.5,28.97,SSW,193,5.4,7.6,46,0.00,,,0.00,LWC V2.10 B1813,2013-02-24 17:25:00,
2013-02-24 11:30:00,65.3,43.4,28.97,SSE,164,8.1,11.0,45,0.00,,,0.00,LWC V2.10 B1813,2013-02-24 17:30:00,
2013-02-24 11:35:00,65.5,43.6,28.97,SE,130,10.5,12.8,45,0.00,,,0.00,LWC V2.10 B1813,2013-02-24 17:35:00,
2013-02-24 11:40:00,65.1,42.7,28.97,ESE,120,10.1,17.0,44,0.00,,,0.00,LWC V2.10 B1813,2013-02-24 17:40:00,
2013-02-24 11:45:00,65.5,43.0,28.97,SSW,205,10.5,12.8,44,0.00,,,0.00,LWC V2.10 B1813,2013-02-24 17:45:00,
2013-02-24 11:50:00,66.6,44.0,28.97,SE,125,8.7,12.8,44,0.00,,,0.00,LWC V2.10 B1813,2013-02-24 17:50:00,
2013-02-24 11:55:00,67.1,44.5,28.97,SSE,164,7.6,10.1,44,0.00,,,0.00,LWC V2.10 B1813,2013-02-24 17:55:00,
2013-02-24 12:00:00,67.1,44.5,28.97,NE,50,10.5,10.5,44,0.00,,,0.00,LWC V2.10 B1813,2013-02-24 18:00:00,
2013-02-24 12:05:00,67.1,43.8,28.97,ESE,105,10.1,13.2,43,0.00,,,0.00,LWC V2.10 B1813,2013-02-24 18:05:00,
2013-02-24 12:10:00,67.5,44.2,28.97,ESE,117,6.7,13.2,43,0.00,,,0.00,LWC V2.10 B1813,2013-02-24 18:10:00,
2013-02-24 12:15:00,67.5,44.2,28.94,East,99,11.0,11.0,43,0.00,,,0.00,LWC V2.10 B1813,2013-02-24 18:15:00,
2013-02-24 12:20:00,67.8,44.5,28.94,SE,146,10.5,12.3,43,0.00,,,0.00,LWC V2.10 B1813,2013-02-24 18:20:00,
2013-02-24 12:25:00,68.5,45.1,28.94,SSE,148,5.4,8.7,43,0.00,,,0.00,LWC V2.10 B1813,2013-02-24 18:25:00,
2013-02-24 12:30:00,68.2,44.2,28.94,SE,144,8.1,12.8,42,0.00,,,0.00,LWC V2.10 B1813,2013-02-24 18:30:00,
2013-02-24 12:35:00,68.2,44.2,28.94,SSE,153,12.3,15.0,42,0.00,,,0.00,LWC V2.10 B1813,2013-02-24 18:35:00,
2013-02-24 12:40:00,69.4,45.3,28.94,South,169,10.5,13.6,42,0.00,,,0.00,LWC V2.10 B1813,2013-02-24 18:40:00,
2013-02-24 12:45:00,69.6,45.5,28.94,SSE,159,9.2,12.8,42,0.00,,,0.00,LWC V2.10 B1813,2013-02-24 18:45:00,
2013-02-24 12:50:00,69.6,45.5,28.94,South,172,13.2,13.2,42,0.00,,,0.00,LWC V2.10 B1813,2013-02-24 18:50:00,
2013-02-24 12:55:00,69.6,44.9,28.94,SW,220,5.4,5.8,41,0.00,,,0.00,LWC V2.10 B1813,2013-02-24 18:55:00,
2013-02-24 13:00:00,69.1,45.0,28.91,SE,126,8.1,8.1,42,0.00,,,0.00,LWC V2.10 B1813,2013-02-24 19:00:00,
2013-02-24 13:05:00,69.8,45.0,28.91,SSW,195,15.0,15.0,41,0.00,,,0.00,LWC V2.10 B1813,2013-02-24 19:05:00,
2013-02-24 13:10:00,69.6,44.9,28.91,SSW,196,8.7,11.9,41,0.00,,,0.00,LWC V2.10 B1813,2013-02-24 19:10:00,
2013-02-24 13:15:00,70.5,45.7,28.91,SSE,150,7.6,8.7,41,0.00,,,0.00,LWC V2.10 B1813,2013-02-24 19:15:00,
2013-02-24 13:20:00,70.9,46.0,28.91,SSW,196,6.3,11.0,41,0.00,,,0.00,LWC V2.10 B1813,2013-02-24 19:20:00,
2013-02-24 13:25:00,70.5,45.7,28.91,South,185,9.2,12.8,41,0.00,,,0.00,LWC V2.10 B1813,2013-02-24 19:25:00,
2013-02-24 13:30:00,70.7,45.8,28.91,SSW,202,13.2,13.2,41,0.00,,,0.00,LWC V2.10 B1813,2013-02-24 19:30:00,
2013-02-24 13:35:00,71.1,46.2,28.91,SSE,168,12.3,13.2,41,0.00,,,0.00,LWC V2.10 B1813,2013-02-24 19:35:00,
2013-02-24 13:40:00,70.7,45.8,28.91,South,180,11.0,11.4,41,0.00,,,0.00,LWC V2.10 B1813,2013-02-24 19:40:00,
2013-02-24 13:45:00,71.4,46.5,28.88,South,189,6.3,8.7,41,0.00,,,0.00,LWC V2.10 B1813,2013-02-24 19:45:00,
2013-02-24 13:50:00,70.9,46.0,28.88,SSE,155,11.0,11.0,41,0.00,,,0.00,LWC V2.10 B1813,2013-02-24 19:50:00,
2013-02-24 13:55:00,70.7,45.2,28.88,SE,140,8.3,13.2,40,0.00,,,0.00,LWC V2.10 B1813,2013-02-24 19:55:00,
2013-02-24 14:00:00,71.6,46.0,28.88,SSE,154,5.8,10.1,40,0.00,,,0.00,LWC V2.10 B1813,2013-02-24 20:00:00,
2013-02-24 14:05:00,71.4,45.8,28.88,South,178,7.2,14.1,40,0.00,,,0.00,LWC V2.10 B1813,2013-02-24 20:05:00,
2013-02-24 14:11:00,71.6,46.0,28.88,SE,136,8.1,15.0,40,0.00,,,0.00,LWC V2.10 B1813,2013-02-24 20:11:00,
2013-02-24 14:16:00,72.0,46.3,28.85,SSW,206,5.4,11.0,40,0.00,,,0.00,LWC V2.10 B1813,2013-02-24 20:16:00,
2013-02-24 14:21:00,72.5,46.8,28.85,South,184,8.3,10.1,40,0.00,,,0.00,LWC V2.10 B1813,2013-02-24 20:21:00,
2013-02-24 14:26:00,72.3,46.6,28.85,SE,130,11.0,13.2,40,0.00,,,0.00,LWC V2.10 B1813,2013-02-24 20:26:00,
2013-02-24 14:31:00,72.7,46.3,28.85,East,88,5.8,13.2,39,0.00,,,0.00,LWC V2.10 B1813,2013-02-24 20:31:00,
2013-02-24 14:36:00,73.2,47.4,28.85,SSW,197,5.4,7.2,40,0.00,,,0.00,LWC V2.10 B1813,2013-02-24 20:36:00,
2013-02-24 14:41:00,74.1,47.6,28.85,ESE,102,8.1,10.1,39,0.00,,,0.00,LWC V2.10 B1813,2013-02-24 20:41:00,
2013-02-24 14:46:00,73.9,46.7,28.85,South,179,3.1,11.0,38,0.00,,,0.00,LWC V2.10 B1813,2013-02-24 20:46:00,
2013-02-24 14:51:00,73.6,46.4,28.85,South,173,6.3,12.8,38,0.00,,,0.00,LWC V2.10 B1813,2013-02-24 20:51:00,
2013-02-24 14:56:00,72.9,46.4,28.85,SSW,195,10.1,15.0,39,0.00,,,0.00,LWC V2.10 B1813,2013-02-24 20:56:00,
2013-02-24 15:01:00,71.1,44.8,28.85,South,173,11.0,11.0,39,0.00,,,0.00,LWC V2.10 B1813,2013-02-24 21:01:00,
2013-02-24 15:06:00,72.3,46.0,28.85,SSE,167,11.0,11.0,39,0.00,,,0.00,LWC V2.10 B1813,2013-02-24 21:06:00,
2013-02-24 15:11:00,72.7,45.6,28.85,South,170,8.1,12.3,38,0.00,,,0.00,LWC V2.10 B1813,2013-02-24 21:11:00,
2013-02-24 15:16:00,73.0,46.6,28.82,SE,130,10.1,10.1,39,0.00,,,0.00,LWC V2.10 B1813,2013-02-24 21:16:00,
2013-02-24 15:21:00,72.9,46.4,28.82,East,100,8.7,14.1,39,0.00,,,0.00,LWC V2.10 B1813,2013-02-24 21:21:00,
2013-02-24 15:26:00,72.7,46.3,28.82,South,188,8.7,14.5,39,0.00,,,0.00,LWC V2.10 B1813,2013-02-24 21:26:00,
2013-02-24 15:31:00,73.2,46.8,28.82,ESE,121,4.0,11.9,39,0.00,,,0.00,LWC V2.10 B1813,2013-02-24 21:31:00,
2013-02-24 15:36:00,73.0,46.6,28.82,ESE,117,5.4,11.0,39,0.00,,,0.00,LWC V2.10 B1813,2013-02-24 21:36:00,
2013-02-24 15:41:00,71.8,45.5,28.82,South,172,10.1,13.2,39,0.00,,,0.00,LWC V2.10 B1813,2013-02-24 21:41:00,
2013-02-24 15:46:00,70.5,45.0,28.82,South,170,8.7,11.0,40,0.00,,,0.00,LWC V2.10 B1813,2013-02-24 21:46:00,
2013-02-24 15:51:00,70.3,46.1,28.82,SSE,168,8.3,14.1,42,0.00,,,0.00,LWC V2.10 B1813,2013-02-24 21:51:00,
2013-02-24 15:56:00,70.2,46.0,28.82,ENE,72,4.9,13.2,42,0.00,,,0.00,LWC V2.10 B1813,2013-02-24 21:56:00,
2013-02-24 16:01:00,70.3,46.1,28.82,East,81,8.3,14.5,42,0.00,,,0.00,LWC V2.10 B1813,2013-02-24 22:01:00,
2013-02-24 16:06:00,70.3,46.1,28.82,SSE,167,10.5,14.5,42,0.00,,,0.00,LWC V2.10 B1813,2013-02-24 22:06:00,
2013-02-24 16:11:00,70.0,45.8,28.82,ESE,103,5.8,13.2,42,0.00,,,0.00,LWC V2.10 B1813,2013-02-24 22:11:00,
2013-02-24 16:16:00,69.6,46.1,28.82,SSE,156,8.1,10.5,43,0.00,,,0.00,LWC V2.10 B1813,2013-02-24 22:16:00,
2013-02-24 16:21:00,69.4,46.0,28.82,SE,128,6.3,8.3,43,0.00,,,0.00,LWC V2.10 B1813,2013-02-24 22:21:00,
2013-02-24 16:26:00,69.4,46.6,28.82,SE,132,3.1,10.5,44,0.00,,,0.00,LWC V2.10 B1813,2013-02-24 22:26:00,
2013-02-24 16:31:00,69.6,46.7,28.82,SE,139,3.6,8.7,44,0.00,,,0.00,LWC V2.10 B1813,2013-02-24 22:31:00,
2013-02-24 16:36:00,69.8,46.3,28.82,SSE,164,3.6,9.2,43,0.00,,,0.00,LWC V2.10 B1813,2013-02-24 22:36:00,
2013-02-24 16:41:00,69.6,46.7,28.82,SE,142,3.6,10.5,44,0.00,,,0.00,LWC V2.10 B1813,2013-02-24 22:41:00,
2013-02-24 16:46:00,69.6,46.7,28.82,SSE,166,3.6,5.8,44,0.00,,,0.00,LWC V2.10 B1813,2013-02-24 22:46:00,
2013-02-24 16:51:00,69.4,46.6,28.82,ENE,57,5.4,11.9,44,0.00,,,0.00,LWC V2.10 B1813,2013-02-24 22:51:00,
2013-02-24 16:56:00,69.1,46.2,28.82,SSW,194,8.1,9.6,44,0.00,,,0.00,LWC V2.10 B1813,2013-02-24 22:56:00,
2013-02-24 17:01:00,68.9,46.7,28.82,ENE,65,7.6,15.0,45,0.00,,,0.00,LWC V2.10 B1813,2013-02-24 23:01:00,
2013-02-24 17:06:00,68.9,46.7,28.82,SE,136,8.3,8.3,45,0.00,,,0.00,LWC V2.10 B1813,2013-02-24 23:06:00,
2013-02-24 17:11:00,68.9,46.7,28.82,SE,124,8.3,12.8,45,0.00,,,0.00,LWC V2.10 B1813,2013-02-24 23:11:00,
2013-02-24 17:16:00,68.5,46.3,28.82,SSE,162,8.1,12.8,45,0.00,,,0.00,LWC V2.10 B1813,2013-02-24 23:16:00,
2013-02-24 17:21:00,68.4,46.8,28.82,SE,128,6.7,10.5,46,0.00,,,0.00,LWC V2.10 B1813,2013-02-24 23:21:00,
2013-02-24 17:26:00,68.4,46.8,28.82,SSE,168,8.7,12.3,46,0.00,,,0.00,LWC V2.10 B1813,2013-02-24 23:26:00,
2013-02-24 17:31:00,68.2,47.2,28.82,South,179,5.8,13.6,47,0.00,,,0.00,LWC V2.10 B1813,2013-02-24 23:31:00,
2013-02-24 17:36:00,68.2,47.2,28.82,South,190,5.8,11.0,47,0.00,,,0.00,LWC V2.10 B1813,2013-02-24 23:36:00,
2013-02-24 17:41:00,68.0,47.6,28.82,ESE,111,8.1,10.5,48,0.00,,,0.00,LWC V2.10 B1813,2013-02-24 23:41:00,
2013-02-24 17:46:00,67.8,48.0,28.82,ESE,109,5.8,8.7,49,0.00,,,0.00,LWC V2.10 B1813,2013-02-24 23:46:00,
2013-02-24 17:51:00,67.6,48.3,28.82,SE,146,5.8,8.7,50,0.00,,,0.00,LWC V2.10 B1813,2013-02-24 23:51:00,
2013-02-24 17:56:00,67.5,48.2,28.82,ESE,117,4.0,10.5,50,0.00,,,0.00,LWC V2.10 B1813,2013-02-24 23:56:00,
2013-02-24 18:01:00,67.5,48.7,28.82,SE,142,8.3,8.3,51,0.00,,,0.00,LWC V2.10 B1813,2013-02-25 00:01:00,
2013-02-24 18:06:00,67.5,49.2,28.82,SSE,162,3.1,8.3,52,0.00,,,0.00,LWC V2.10 B1813,2013-02-25 00:06:00,
2013-02-24 18:11:00,67.3,49.0,28.82,SSE,155,7.6,8.7,52,0.00,,,0.00,LWC V2.10 B1813,2013-02-25 00:11:00,
2013-02-24 18:16:00,67.3,49.0,28.82,ESE,116,8.3,10.1,52,0.00,,,0.00,LWC V2.10 B1813,2013-02-25 00:16:00,
2013-02-24 18:21:00,67.1,49.4,28.82,ESE,111,7.6,8.7,53,0.00,,,0.00,LWC V2.10 B1813,2013-02-25 00:21:00,
2013-02-24 18:26:00,67.1,49.9,28.82,SE,140,6.3,8.7,54,0.00,,,0.00,LWC V2.10 B1813,2013-02-25 00:26:00,
2013-02-24 18:31:00,67.1,49.9,28.82,SE,145,8.7,8.7,54,0.00,,,0.00,LWC V2.10 B1813,2013-02-25 00:31:00,
2013-02-24 18:36:00,67.1,49.9,28.82,SSE,164,7.2,8.1,54,0.00,,,0.00,LWC V2.10 B1813,2013-02-25 00:36:00,
2013-02-24 18:41:00,66.9,50.2,28.82,East,96,7.6,11.0,55,0.00,,,0.00,LWC V2.10 B1813,2013-02-25 00:41:00,
2013-02-24 18:46:00,66.9,50.2,28.82,SE,140,5.8,10.1,55,0.00,,,0.00,LWC V2.10 B1813,2013-02-25 00:46:00,
2013-02-24 18:51:00,66.9,50.2,28.82,ESE,120,7.6,8.1,55,0.00,,,0.00,LWC V2.10 B1813,2013-02-25 00:51:00,
2013-02-24 18:56:00,66.9,50.2,28.82,ENE,72,10.5,15.0,55,0.00,,,0.00,LWC V2.10 B1813,2013-02-25 00:56:00,
2013-02-24 19:01:00,66.9,50.2,28.82,SE,139,8.7,11.0,55,0.00,,,0.00,LWC V2.10 B1813,2013-02-25 01:01:00,
2013-02-24 19:06:00,66.9,50.2,28.82,SSE,149,7.6,12.3,55,0.00,,,0.00,LWC V2.10 B1813,2013-02-25 01:06:00,
2013-02-24 19:11:00,66.9,50.2,28.82,SSE,159,5.8,12.8,55,0.00,,,0.00,LWC V2.10 B1813,2013-02-25 01:11:00,
2013-02-24 19:16:00,66.7,50.0,28.82,South,176,10.1,10.1,55,0.00,,,0.00,LWC V2.10 B1813,2013-02-25 01:16:00,
2013-02-24 19:21:00,66.6,49.9,28.82,SSE,149,9.6,9.6,55,0.00,,,0.00,LWC V2.10 B1813,2013-02-25 01:21:00,
2013-02-24 19:26:00,66.6,50.4,28.82,East,95,5.4,12.8,56,0.00,,,0.00,LWC V2.10 B1813,2013-02-25 01:26:00,
2013-02-24 19:31:00,66.4,50.7,28.82,South,191,5.4,10.5,57,0.00,,,0.00,LWC V2.10 B1813,2013-02-25 01:31:00,
2013-02-24 19:36:00,66.2,51.0,28.82,SE,140,7.6,8.3,58,0.00,,,0.00,LWC V2.10 B1813,2013-02-25 01:36:00,
2013-02-24 19:41:00,66.0,51.3,28.82,ESE,114,8.1,10.1,59,0.00,,,0.00,LWC V2.10 B1813,2013-02-25 01:41:00,
2013-02-24 19:46:00,65.8,51.6,28.82,East,84,4.0,14.5,60,0.00,,,0.00,LWC V2.10 B1813,2013-02-25 01:46:00,
2013-02-24 19:51:00,65.7,51.4,28.82,East,95,9.6,11.0,60,0.00,,,0.00,LWC V2.10 B1813,2013-02-25 01:51:00,
2013-02-24 19:56:00,65.5,51.7,28.82,SE,130,6.7,8.3,61,0.00,,,0.00,LWC V2.10 B1813,2013-02-25 01:56:00,
2013-02-24 20:01:00,65.3,51.9,28.82,South,170,6.3,7.2,62,0.00,,,0.00,LWC V2.10 B1813,2013-02-25 02:01:00,
2013-02-24 20:06:00,65.1,52.2,28.82,SE,139,6.3,6.3,63,0.00,,,0.00,LWC V2.10 B1813,2013-02-25 02:06:00,
2013-02-24 20:11:00,64.9,52.0,28.82,SE,126,10.1,10.1,63,0.00,,,0.00,LWC V2.10 B1813,2013-02-25 02:11:00,
2013-02-24 20:16:00,64.9,52.5,28.82,SSE,147,5.8,8.3,64,0.00,,,0.00,LWC V2.10 B1813,2013-02-25 02:16:00,
2013-02-24 20:21:00,64.8,52.3,28.82,ENE,78,3.6,8.1,64,0.00,,,0.00,LWC V2.10 B1813,2013-02-25 02:21:00,
2013-02-24 20:26:00,64.6,52.5,28.82,ESE,109,7.6,10.5,65,0.00,,,0.00,LWC V2.10 B1813,2013-02-25 02:26:00,
2013-02-24 20:31:00,64.6,53.0,28.82,ESE,120,8.1,11.0,66,0.00,,,0.00,LWC V2.10 B1813,2013-02-25 02:31:00,
2013-02-24 20:36:00,64.4,52.8,28.82,ESE,103,8.7,9.6,66,0.00,,,0.00,LWC V2.10 B1813,2013-02-25 02:36:00,
2013-02-24 20:41:00,64.2,53.0,28.82,SE,137,5.4,11.0,67,0.00,,,0.00,LWC V2.10 B1813,2013-02-25 02:41:00,
2013-02-24 20:46:00,64.2,53.4,28.82,SE,142,7.6,8.3,68,0.00,,,0.00,LWC V2.10 B1813,2013-02-25 02:46:00,
2013-02-24 20:51:00,64.2,53.4,28.82,South,174,8.7,10.5,68,0.00,,,0.00,LWC V2.10 B1813,2013-02-25 02:51:00,
2013-02-24 20:56:00,64.2,53.4,28.82,East,92,4.0,8.3,68,0.00,,,0.00,LWC V2.10 B1813,2013-02-25 02:56:00,
2013-02-24 21:01:00,64.2,53.8,28.82,SE,135,5.8,7.6,69,0.00,,,0.00,LWC V2.10 B1813,2013-02-25 03:01:00,
2013-02-24 21:06:00,64.0,53.7,28.82,ESE,115,7.6,11.0,69,0.00,,,0.00,LWC V2.10 B1813,2013-02-25 03:06:00,
2013-02-24 21:11:00,64.0,54.1,28.82,SE,146,7.6,11.0,70,0.00,,,0.00,LWC V2.10 B1813,2013-02-25 03:11:00,
2013-02-24 21:16:00,64.0,54.1,28.82,SE,136,5.8,8.3,70,0.00,,,0.00,LWC V2.10 B1813,2013-02-25 03:16:00,
2013-02-24 21:21:00,64.0,54.1,28.82,SSE,155,4.0,8.1,70,0.00,,,0.00,LWC V2.10 B1813,2013-02-25 03:21:00,
2013-02-24 21:26:00,63.9,53.9,28.82,SSE,162,3.6,5.8,70,0.00,,,0.00,LWC V2.10 B1813,2013-02-25 03:26:00,
2013-02-24 21:31:00,63.9,54.3,28.82,ESE,112,6.3,7.6,71,0.00,,,0.00,LWC V2.10 B1813,2013-02-25 03:31:00,
2013-02-24 21:36:00,63.9,54.3,28.82,SE,135,5.8,6.3,71,0.00,,,0.00,LWC V2.10 B1813,2013-02-25 03:36:00,
2013-02-24 21:41:00,63.7,54.1,28.82,ESE,123,4.0,7.6,71,0.00,,,0.00,LWC V2.10 B1813,2013-02-25 03:41:00,
2013-02-24 21:46:00,63.7,54.5,28.82,ESE,115,6.3,6.7,72,0.00,,,0.00,LWC V2.10 B1813,2013-02-25 03:46:00,
2013-02-24 21:51:00,63.7,54.5,28.82,East,92,8.3,10.1,72,0.00,,,0.00,LWC V2.10 B1813,2013-02-25 03:51:00,
2013-02-24 21:56:00,63.5,54.7,28.82,SE,135,10.1,11.0,73,0.00,,,0.00,LWC V2.10 B1813,2013-02-25 03:56:00,
2013-02-24 22:01:00,63.5,54.7,28.79,SE,132,7.2,10.5,73,0.00,,,0.00,LWC V2.10 B1813,2013-02-25 04:01:00,
2013-02-24 22:06:00,63.5,55.1,28.79,ESE,122,6.7,8.7,74,0.00,,,0.00,LWC V2.10 B1813,2013-02-25 04:06:00,
2013-02-24 22:11:00,63.3,54.9,28.79,South,170,3.1,8.7,74,0.00,,,0.00,LWC V2.10 B1813,2013-02-25 04:11:00,
2013-02-24 22:16:00,63.1,54.7,28.79,SSE,153,5.8,11.0,74,0.00,,,0.00,LWC V2.10 B1813,2013-02-25 04:16:00,
2013-02-24 22:21:00,63.1,55.1,28.79,ESE,111,6.3,6.7,75,0.00,,,0.00,LWC V2.10 B1813,2013-02-25 04:21:00,
2013-02-24 22:26:00,63.1,55.1,28.79,ESE,103,4.0,5.4,75,0.00,,,0.00,LWC V2.10 B1813,2013-02-25 04:26:00,
2013-02-24 22:31:00,63.0,55.3,28.79,South,170,8.7,8.7,76,0.00,,,0.00,LWC V2.10 B1813,2013-02-25 04:31:00,
2013-02-24 22:36:00,63.0,55.6,28.79,ESE,106,8.7,8.7,77,0.00,,,0.00,LWC V2.10 B1813,2013-02-25 04:36:00,
2013-02-24 22:41:00,62.8,55.5,28.79,South,173,10.5,10.5,77,0.00,,,0.00,LWC V2.10 B1813,2013-02-25 04:41:00,
2013-02-24 22:46:00,62.8,55.5,28.79,East,86,5.4,10.5,77,0.00,,,0.00,LWC V2.10 B1813,2013-02-25 04:46:00,
2013-02-24 22:51:00,62.6,55.6,28.79,SE,127,7.6,8.3,78,0.00,,,0.00,LWC V2.10 B1813,2013-02-25 04:51:00,
2013-02-24 22:56:00,62.6,56.0,28.79,ESE,113,5.4,10.1,79,0.00,,,0.00,LWC V2.10 B1813,2013-02-25 04:56:00,
2013-02-24 23:00:00,62.4,56.2,28.76,SSE,151,5.4,10.5,80,0.00,,,0.00,LWC V2.10 B1813,2013-02-25 05:00:00,
2013-02-24 23:05:00,62.4,56.2,28.76,ESE,104,5.4,11.0,80,0.00,,,0.00,LWC V2.10 B1813,2013-02-25 05:05:00,
2013-02-24 23:10:00,62.2,56.3,28.76,East,95,5.4,11.0,81,0.00,,,0.00,LWC V2.10 B1813,2013-02-25 05:10:00,
2013-02-24 23:15:00,62.2,56.0,28.73,ESE,103,5.8,8.7,80,0.00,,,0.00,LWC V2.10 B1813,2013-02-25 05:15:00,
2013-02-24 23:20:00,62.2,56.0,28.73,East,84,7.6,11.0,80,0.00,,,0.00,LWC V2.10 B1813,2013-02-25 05:20:00,
2013-02-24 23:25:00,62.1,56.2,28.73,SE,131,10.5,10.5,81,0.00,,,0.00,LWC V2.10 B1813,2013-02-25 05:25:00,
2013-02-24 23:30:00,61.7,56.1,28.73,East,90,7.2,13.2,82,0.00,,,0.00,LWC V2.10 B1813,2013-02-25 05:30:00,
2013-02-24 23:35:00,61.5,56.0,28.73,SSE,149,10.1,10.5,82,0.00,,,0.00,LWC V2.10 B1813,2013-02-25 05:35:00,
2013-02-24 23:40:00,61.3,56.1,28.73,SE,127,4.0,8.1,83,0.00,,,0.00,LWC V2.10 B1813,2013-02-25 05:40:00,
2013-02-24 23:45:00,61.2,56.3,28.73,East,100,10.1,13.6,84,0.00,,,0.00,LWC V2.10 B1813,2013-02-25 05:45:00,
2013-02-24 23:50:00,61.2,56.3,28.73,ESE,115,7.2,12.8,84,0.00,,,0.00,LWC V2.10 B1813,2013-02-25 05:50:00,
2013-02-24 23:53:00,61.2,56.3,28.73,East,98,8.7,12.3,84,0.00,,,0.00,LWC V2.10 B1813,2013-02-25 05:53:00,
2013-02-24 23:58:00,61.2,56.3,28.73,SSE,147,4.9,8.1,84,0.00,,,0.00,LWC V2.10 B1813,2013-02-25 05:58:00,